1498838400.49,4988,17.75,73554.3,6.45,-22.57,-23.19,0,*4C
1498838401.68,4989,17.75,73566.5,6.45,-22.57,-22.87,0,*4B
1498838402.9,4990,17.75,73576.0,6.43,-22.27,-22.57,0,*4F
1498838404.1,4991,17.75,73572.0,6.41,-22.27,-22.57,0,*4C
1498838405.32,4992,17.75,73576.5,6.41,-21.87,-22.11,0,*44
1498838406.57,4993,17.75,73574.0,6.39,-22.07,-22.47,0,*42
1498838407.85,4994,17.75,73558.5,6.39,-22.17,-22.47,0,*44
1498838409.07,4995,17.75,73544.8,6.39,-22.63,-22.83,0,*4E
1498838410.3,4996,17.75,73554.3,6.37,-22.77,-23.09,0,*45
1498838411.57,4997,17.75,73574.0,6.35,-22.73,-22.77,0,*4A
1498838412.81,4998,17.75,73568.0,6.35,-22.87,-23.03,0,*4C
1498838414.04,4999,17.75,73568.3,6.31,-23.43,-23.59,0,*4F
1498838415.29,5000,17.75,73574.5,6.31,-22.77,-23.09,0,*44
1498838416.52,5001,17.75,73576.8,6.27,-22.83,-22.87,0,*4E
1498838417.77,5002,17.75,73566.5,6.27,-22.87,-23.03,0,*44
1498838418.97,5003,17.75,73576.3,6.25,-22.41,-22.53,0,*49
1498838420.19,5004,17.75,73582.8,6.23,-22.11,-22.11,0,*4B
1498838421.4,5005,17.75,73596.5,6.25,-21.93,-22.07,0,*42
1498838422.61,5006,17.75,73596.0,6.25,-22.07,-22.21,0,*4B
1498838423.87,5007,17.75,73592.8,6.23,-21.57,-21.77,0,*4A
1498838425.11,5008,17.75,73594.0,6.23,-22.11,-21.97,0,*4A
1498838426.38,5009,17.75,73578.5,6.23,-21.97,-21.97,0,*46
1498838427.66,5010,17.75,73580.0,6.23,-22.21,-22.21,0,*4E
1498838428.88,5011,17.75,73592.3,6.21,-22.41,-22.31,0,*4A
1498838430.1,5012,17.75,73592.5,6.19,-21.97,-22.03,0,*4B
1498838431.34,5013,17.75,73586.8,6.19,-21.77,-21.67,0,*45
1498838432.53,5014,17.75,73594.3,6.21,-21.77,-21.47,0,*4B
1498838433.73,5015,17.75,73608.0,6.19,-21.39,-21.17,0,*4E
1498838434.98,5016,17.75,73610.8,6.21,-21.33,-20.99,0,*4B
1498838436.19,5017,17.75,73596.3,6.19,-21.77,-21.39,0,*4A
1498838437.39,5018,17.75,73594.5,6.19,-21.09,-20.73,0,*43
1498838438.61,5019,17.75,73602.5,6.21,-21.09,-20.53,0,*4B
1498838439.81,5020,17.75,73598.5,6.19,-21.09,-20.43,0,*4B
1498838441.04,5021,17.75,73598.0,6.19,-21.33,-20.73,0,*40
1498838442.25,5022,17.75,73582.8,6.19,-21.47,-20.73,0,*40
1498838443.46,5023,17.75,73598.5,6.19,-21.17,-20.39,0,*4A
1498838444.71,5024,17.75,73596.8,6.17,-21.43,-20.49,0,*45
1498838445.96,5025,17.75,73600.3,6.19,-20.83,-19.81,0,*49
1498838447.18,5026,17.75,73590.5,6.19,-20.73,-19.65,0,*4F
1498838448.41,5027,17.75,73598.5,6.19,-20.83,-19.51,0,*46
1498838449.64,5028,17.75,73584.8,6.19,-21.23,-19.91,0,*4E
1498838450.91,5029,17.75,73568.0,6.17,-21.67,-20.19,0,*4B
1498838452.16,5030,17.75,73564.8,6.17,-21.43,-19.85,0,*4A
1498838453.41,5031,17.75,73552.5,6.15,-21.33,-19.61,0,*44
1498838454.63,5032,17.75,73554.8,6.15,-21.43,-19.61,0,*40
1498838455.88,5033,17.75,73564.3,6.15,-21.27,-19.27,0,*41
1498838457.07,5034,17.75,73584.8,6.15,-21.13,-18.99,0,*45
1498838458.31,5035,17.75,73582.3,6.13,-21.13,-18.93,0,*48
1498838459.57,5036,17.75,73592.0,6.09,-20.99,-18.45,0,*48
1498838460.78,5037,17.75,73590.3,6.13,-20.69,-18.21,0,*4F
1498838462.05,5038,17.75,73590.3,6.09,-20.59,-17.97,0,*4A
1498838463.28,5039,17.75,73594.5,6.09,-20.69,-17.83,0,*4D
1498838464.53,5040,17.75,73598.0,6.09,-20.25,-17.21,0,*43
1498838465.74,5041,17.75,73596.3,6.09,-20.05,-16.93,0,*48
1498838467.01,5042,17.75,73594.0,6.13,-20.19,-17.11,0,*46
1498838468.23,5043,17.75,73588.5,6.09,-20.05,-16.79,0,*4E
1498838469.48,5044,17.75,73588.0,6.09,-20.29,-17.03,0,*4B
1498838470.73,5045,17.75,73588.5,6.09,-19.47,-16.31,0,*48
1498838471.98,5046,17.75,73590.0,6.09,-19.51,-16.27,0,*4B
1498838473.21,5047,17.75,73588.8,6.09,-18.99,-15.99,0,*49
1498838474.47,5048,17.75,73590.8,6.09,-18.69,-15.85,0,*44
1498838475.74,5049,17.75,73576.8,6.09,-18.89,-16.27,0,*40
1498838477.01,5050,17.75,73568.8,6.09,-19.31,-16.59,0,*43
1498838478.22,5051,17.75,73578.3,6.13,-19.07,-16.45,0,*41
1498838479.48,5052,17.75,73572.8,6.09,-19.37,-17.03,0,*49
1498838480.76,5053,17.75,73560.8,6.09,-19.65,-17.21,0,*4F
1498838481.99,5054,17.75,73562.3,6.09,-19.37,-16.93,0,*47
1498838483.22,5055,17.75,73558.5,6.09,-19.37,-16.93,0,*46
1498838484.45,5056,17.75,73562.8,6.05,-19.37,-16.83,0,*48
1498838485.67,5057,17.75,73568.5,6.07,-19.17,-16.75,0,*40
1498838486.9,5058,17.75,73566.8,6.07,-19.23,-16.75,0,*48
1498838488.18,5059,17.75,73558.5,6.05,-19.23,-16.69,0,*46
1498838489.41,5060,17.75,73560.8,6.07,-18.99,-16.51,0,*45
1498838490.63,5061,17.75,73564.3,6.07,-19.03,-16.51,0,*46
1498838491.89,5062,17.75,73566.3,6.05,-18.93,-16.41,0,*4E
1498838493.16,5063,17.75,73570.8,6.05,-18.89,-16.31,0,*43
1498838494.41,5064,17.75,73564.5,6.05,-18.59,-16.03,0,*48
1498838495.66,5065,17.75,73572.5,6.05,-18.49,-15.89,0,*49
1498838496.88,5066,17.75,73578.3,6.07,-18.59,-15.99,0,*48
1498838498.11,5067,17.75,73580.8,6.05,-18.65,-15.95,0,*48
1498838499.36,5068,17.75,73578.3,6.05,-18.35,-15.67,0,*4F
1498838500.59,5069,17.75,73576.8,6.07,-18.07,-15.35,0,*4A
1498838501.82,5070,17.75,73574.8,6.07,-18.07,-15.35,0,*42
1498838503.03,5071,17.75,73578.0,6.07,-18.11,-15.29,0,*49
1498838504.27,5072,17.75,73576.0,6.07,-17.97,-15.15,0,*44
1498838505.48,5073,17.75,73570.5,6.07,-18.11,-15.25,0,*47
1498838506.69,5074,17.75,73566.3,6.07,-18.17,-15.25,0,*46
1498838507.91,5075,17.75,73562.0,6.07,-17.63,-14.61,0,*4A
1498838509.16,5076,17.75,73582.3,6.09,-17.79,-14.69,0,*44
1498838510.38,5077,17.75,73576.3,6.13,-17.73,-14.65,0,*48
1498838511.6,5078,17.75,73576.3,6.13,-17.35,-14.33,0,*46
1498838512.85,5079,17.75,73568.8,6.13,-17.73,-14.55,0,*45
1498838514.1,5080,17.75,73576.0,6.13,-18.07,-14.93,0,*45
1498838515.35,5081,17.75,73574.3,6.15,-18.01,-14.83,0,*45
1498838516.59,5082,17.75,73570.8,6.17,-17.73,-14.51,0,*41
1498838517.8,5083,17.75,73574.8,6.15,-17.35,-14.23,0,*45
1498838519.01,5084,17.75,73560.0,6.15,-16.89,-13.79,0,*4C
1498838520.23,5085,17.75,73562.5,6.15,-16.83,-13.79,0,*47
1498838521.48,5086,17.75,73564.5,6.17,-16.41,-13.37,0,*42
1498838522.7,5087,17.75,73566.3,6.17,-16.37,-13.51,0,*42
1498838523.92,5088,17.75,73564.3,6.17,-16.37,-13.73,0,*4D
1498838525.2,5089,17.75,73560.3,6.17,-17.55,-14.93,0,*40
1498838526.42,5090,17.75,73564.0,6.19,-16.75,-14.43,0,*48
1498838527.65,5091,17.75,73566.0,6.19,-16.23,-14.15,0,*49
1498838528.89,5092,17.75,73562.3,6.21,-16.65,-14.75,0,*45
1498838530.12,5093,17.75,73558.5,6.23,-16.45,-14.65,0,*45
1498838531.35,5094,17.75,73560.3,6.19,-16.65,-15.15,0,*4F
1498838532.61,5095,17.75,73568.5,6.21,-16.13,-14.55,0,*41
1498838533.86,5096,17.75,73570.3,6.21,-16.13,-14.83,0,*49
1498838535.1,5097,17.75,73568.5,6.23,-15.99,-14.79,0,*4E
1498838536.33,5098,17.75,73568.5,6.23,-16.89,-15.67,0,*4D
1498838537.55,5099,17.75,73560.3,6.23,-16.75,-15.67,0,*4F
1498838538.79,5100,17.75,73570.8,6.25,-16.55,-15.39,0,*41
1498838540.02,5101,17.75,73564.3,6.25,-15.95,-14.79,0,*4A
1498838541.25,5102,17.75,73562.8,6.25,-16.13,-15.11,0,*4B
1498838542.5,5103,17.75,73562.5,6.23,-16.27,-15.11,0,*4B
1498838543.73,5104,17.75,73562.0,6.25,-16.13,-15.07,0,*4A
1498838544.96,5105,17.75,73556.3,6.29,-15.89,-14.65,0,*42
1498838546.19,5106,17.75,73550.5,6.27,-15.75,-14.61,0,*48
1498838547.42,5107,17.75,73550.0,6.27,-15.75,-14.65,0,*4D
1498838548.62,5108,17.75,73554.3,6.29,-15.75,-14.61,0,*48
1498838549.84,5109,17.75,73558.5,6.29,-15.89,-14.65,0,*4E
1498838551.07,5110,17.75,73558.0,6.29,-16.27,-15.25,0,*44
1498838552.32,5111,17.75,73560.5,6.29,-16.09,-14.93,0,*45
1498838553.55,5112,17.75,73566.8,6.31,-15.75,-14.61,0,*4A
1498838554.8,5113,17.75,73554.0,6.35,-16.27,-15.11,0,*4D
1498838556.05,5114,17.75,73554.3,6.35,-16.45,-15.39,0,*44
1498838557.3,5115,17.75,73552.3,6.35,-17.31,-16.17,0,*48
1498838558.55,5116,17.75,73546.8,6.31,-17.83,-16.65,0,*43
1498838559.8,5117,17.75,73554.0,6.27,-17.83,-16.69,0,*49
1498838561.05,5118,17.75,73564.0,6.29,-17.45,-16.27,0,*48
1498838562.33,5119,17.75,73558.3,6.27,-17.41,-16.13,0,*44
1498838563.59,5120,17.75,73562.0,6.27,-16.51,-15.25,0,*48
1498838564.85,5121,17.75,73566.3,6.27,-16.41,-15.35,0,*49
1498838566.13,5122,17.75,73574.3,6.27,-17.03,-15.89,0,*4A
1498838567.39,5123,17.75,73568.5,6.27,-16.65,-15.53,0,*4D
1498838568.64,5124,17.75,73560.3,6.27,-16.93,-15.81,0,*4C
1498838569.9,5125,17.75,73552.0,6.27,-16.97,-15.81,0,*49
1498838571.15,5126,17.75,73540.3,6.27,-17.11,-15.75,0,*4E
1498838572.41,5127,17.75,73540.5,6.25,-16.69,-15.43,0,*46
1498838573.67,5128,17.75,73556.5,6.25,-16.13,-14.97,0,*4C
1498838574.89,5129,17.75,73556.5,6.25,-16.27,-15.07,0,*42
1498838576.1,5130,17.75,73560.0,6.25,-15.95,-14.65,0,*45
1498838577.32,5131,17.75,73568.0,6.27,-15.63,-14.37,0,*48
1498838578.55,5132,17.75,73564.8,6.29,-16.51,-15.25,0,*45
1498838579.83,5133,17.75,73562.0,6.27,-16.27,-14.93,0,*47
1498838581.03,5134,17.75,73566.8,6.29,-15.75,-14.37,0,*44
1498838582.25,5135,17.75,73570.3,6.27,-15.67,-14.33,0,*4C
1498838583.5,5136,17.75,73548.5,6.29,-16.13,-14.75,0,*43
1498838584.69,5137,17.75,73578.5,6.29,-15.75,-14.37,0,*47
1498838585.97,5138,17.75,73578.8,6.31,-16.31,-14.97,0,*48
1498838587.19,5139,17.75,73572.3,6.29,-16.37,-14.93,0,*42
1498838588.44,5140,17.75,73552.0,6.31,-16.37,-14.83,0,*44
1498838589.69,5141,17.75,73566.0,6.31,-16.31,-14.89,0,*49
1498838590.93,5142,17.75,73598.3,6.35,-16.03,-14.55,0,*4E
1498838592.16,5143,17.75,73584.5,6.35,-15.95,-14.37,0,*47
1498838593.39,5144,17.75,73586.0,6.31,-16.31,-14.69,0,*42
1498838594.66,5145,17.75,73586.8,6.35,-15.85,-14.43,0,*43
1498838595.91,5146,17.75,73586.0,6.35,-15.53,-14.05,0,*49
1498838597.17,5147,17.75,73592.5,6.35,-15.39,-13.79,0,*48
1498838598.39,5148,17.75,73594.3,6.35,-15.29,-13.93,0,*42
1498838599.6,5149,17.75,73592.3,6.37,-15.39,-13.93,0,*40
1498838600.85,5150,17.75,73590.3,6.37,-15.39,-14.01,0,*44
1498838602.06,5151,17.75,73588.8,6.37,-15.39,-13.93,0,*49
1498838603.3,5152,17.75,73588.8,6.39,-15.07,-13.61,0,*44
1498838604.57,5153,17.75,73588.0,6.39,-14.93,-13.61,0,*49
1498838605.81,5154,17.75,73592.3,6.39,-14.79,-13.47,0,*4E
1498838607.06,5155,17.75,73594.0,6.43,-15.15,-13.97,0,*44
1498838608.32,5156,17.75,73590.8,6.43,-15.21,-14.05,0,*4C
1498838609.56,5157,17.75,73584.0,6.43,-15.07,-14.01,0,*4D
1498838610.8,5158,17.75,73586.3,6.43,-15.15,-13.87,0,*48
1498838612.0,5159,17.75,73588.5,6.45,-15.01,-13.93,0,*4F
1498838613.24,5160,17.75,73584.5,6.45,-14.97,-13.97,0,*4F
1498838614.48,5161,17.75,73584.8,6.45,-15.01,-13.97,0,*40
1498838615.69,5162,17.75,73580.8,6.47,-15.25,-14.11,0,*4E
1498838616.9,5163,17.75,73582.0,6.45,-14.97,-13.93,0,*48
1498838618.11,5164,17.75,73580.8,6.47,-14.89,-13.69,0,*47
1498838619.37,5165,17.75,73580.0,6.47,-15.01,-13.97,0,*46
1498838620.64,5166,17.75,73580.3,6.47,-15.01,-13.97,0,*45
1498838621.87,5167,17.75,73578.8,6.47,-14.97,-13.93,0,*4E
1498838623.13,5168,17.75,73578.8,6.47,-14.97,-14.01,0,*4D
1498838624.36,5169,17.75,73576.3,6.47,-14.69,-13.83,0,*40
1498838625.61,5170,17.75,73582.8,6.47,-14.51,-13.51,0,*4C
1498838626.86,5171,17.75,73582.3,6.51,-14.43,-13.43,0,*4A
1498838628.1,5172,17.75,73582.3,6.51,-14.47,-13.69,0,*45
1498838629.32,5173,17.75,73586.3,6.51,-14.61,-13.73,0,*4B
1498838630.54,5174,17.75,73582.8,6.53,-14.33,-13.55,0,*4D
1498838631.81,5175,17.75,73578.0,6.53,-14.43,-13.61,0,*4C
1498838633.08,5176,17.75,73580.0,6.53,-14.79,-14.05,0,*43
1498838634.29,5177,17.75,73582.3,6.57,-15.11,-14.37,0,*48
1498838635.53,5178,17.75,73580.0,6.53,-14.93,-14.29,0,*47
1498838636.78,5179,17.75,73584.3,6.57,-14.69,-14.01,0,*4D
1498838637.99,5180,17.75,73586.3,6.57,-14.65,-14.11,0,*46
1498838639.23,5181,17.75,73590.0,6.53,-14.55,-13.93,0,*4D
1498838640.5,5182,17.75,73592.8,6.57,-14.51,-13.83,0,*4F
1498838641.76,5183,17.75,73592.0,6.53,-14.15,-13.61,0,*46
1498838642.98,5184,17.75,73588.5,6.57,-14.11,-13.55,0,*46
1498838644.19,5185,17.75,73592.8,6.59,-14.11,-13.65,0,*4A
1498838645.41,5186,17.75,73592.3,6.59,-14.47,-13.93,0,*43
1498838646.67,5187,17.75,73598.3,6.59,-14.83,-14.47,0,*44
1498838647.95,5188,17.75,73594.5,6.61,-14.51,-13.97,0,*45
1498838649.14,5189,17.75,73592.0,6.59,-14.69,-14.23,0,*4C
1498838650.34,5190,17.75,73592.0,6.59,-14.61,-14.11,0,*4D
1498838651.59,5191,17.75,73588.0,6.61,-14.47,-14.19,0,*4B
1498838652.84,5192,17.75,73586.0,6.59,-14.51,-14.05,0,*49
1498838654.1,5193,17.75,73586.5,6.61,-14.23,-14.05,0,*46
1498838655.35,5194,17.75,73586.3,6.61,-14.37,-14.05,0,*44
1498838656.56,5195,17.75,73584.3,6.61,-14.33,-14.11,0,*44
1498838657.81,5196,17.75,73586.0,6.61,-14.61,-14.47,0,*43
1498838659.06,5197,17.75,73588.3,6.61,-14.79,-14.61,0,*4F
1498838660.25,5198,17.75,73586.8,6.63,-15.07,-14.89,0,*4C
1498838661.49,5199,17.75,73584.5,6.63,-15.01,-14.93,0,*40
1498838662.69,5200,17.75,73586.8,6.63,-14.89,-14.89,0,*49
1498838663.93,5201,17.75,73586.3,6.63,-14.75,-14.75,0,*48
1498838665.17,5202,17.75,73584.3,6.63,-14.75,-14.75,0,*4B
1498838666.39,5203,17.75,73586.8,6.63,-15.01,-14.89,0,*4B
1498838667.6,5204,17.75,73586.0,6.63,-15.01,-14.89,0,*4C
1498838668.82,5205,17.75,73584.8,6.63,-14.89,-14.93,0,*47
1498838670.07,5206,17.75,73580.8,6.65,-15.15,-15.01,0,*4C
1498838671.26,5207,17.75,73578.8,6.63,-15.07,-15.07,0,*4E
1498838672.51,5208,17.75,73576.3,6.63,-14.79,-14.79,0,*41
1498838673.7,5209,17.75,73580.0,6.63,-14.61,-14.61,0,*40
1498838674.9,5210,17.75,73578.5,6.63,-14.19,-14.19,0,*48
1498838676.17,5211,17.75,73582.0,6.65,-14.43,-14.55,0,*48
1498838677.39,5212,17.75,73582.0,6.65,-15.07,-15.15,0,*4F
1498838678.63,5213,17.75,73586.0,6.65,-14.89,-15.01,0,*4C
1498838679.85,5214,17.75,73588.3,6.65,-14.89,-14.89,0,*4A
1498838681.13,5215,17.75,73586.3,6.65,-14.43,-14.55,0,*4C
1498838682.32,5216,17.75,73586.3,6.71,-14.29,-14.37,0,*42
1498838683.57,5217,17.75,73588.0,6.69,-14.37,-14.55,0,*41
1498838684.79,5218,17.75,73590.8,6.67,-14.55,-14.61,0,*43
1498838686.04,5219,17.75,73596.5,6.69,-14.47,-14.69,0,*47
1498838687.29,5220,17.75,73592.5,6.69,-14.51,-14.69,0,*4A
1498838688.54,5221,17.75,73590.3,6.69,-14.83,-15.07,0,*4D
1498838689.76,5222,17.75,73590.5,6.71,-15.21,-15.49,0,*44
1498838690.96,5223,17.75,73592.8,6.71,-15.07,-15.25,0,*4B
1498838692.18,5224,17.75,73592.5,6.69,-15.11,-15.25,0,*42
1498838693.41,5225,17.75,73588.5,6.69,-15.25,-15.49,0,*4E
1498838694.63,5226,17.75,73592.3,6.71,-15.21,-15.53,0,*4B
1498838695.85,5227,17.75,73594.0,6.71,-15.07,-15.21,0,*4B
1498838697.09,5228,17.75,73584.0,6.71,-14.97,-15.21,0,*4C
1498838698.31,5229,17.75,73596.0,6.69,-15.25,-15.53,0,*49
1498838699.5,5230,17.75,73596.3,6.71,-15.99,-16.41,0,*4F
1498838700.72,5231,17.75,73576.3,6.67,-16.79,-17.17,0,*46
1498838701.97,5232,17.75,73582.5,6.69,-16.41,-16.69,0,*48
1498838703.19,5233,17.75,73586.0,6.67,-16.13,-16.45,0,*4E
1498838704.42,5234,17.75,73584.5,6.67,-15.75,-16.13,0,*49
1498838705.64,5235,17.75,73584.8,6.65,-15.67,-15.95,0,*44
1498838706.86,5236,17.75,73576.0,6.65,-16.03,-16.45,0,*48
1498838708.1,5237,17.75,73584.3,6.65,-15.57,-15.95,0,*45
1498838709.32,5238,17.75,73582.8,6.65,-16.45,-16.83,0,*4E
1498838710.6,5239,17.75,73582.3,6.65,-15.81,-16.17,0,*49
1498838711.84,5240,17.75,73586.0,6.65,-15.57,-15.95,0,*45
1498838713.09,5241,17.75,73584.5,6.65,-15.75,-16.17,0,*4D
1498838714.32,5242,17.75,73582.3,6.63,-16.65,-16.97,0,*42
1498838715.51,5243,17.75,73594.0,6.63,-15.95,-16.45,0,*40
1498838716.72,5244,17.75,73598.3,6.65,-16.03,-16.45,0,*4D
1498838717.98,5245,17.75,73588.3,6.65,-16.55,-17.07,0,*48
1498838719.2,5246,17.75,73590.3,6.65,-16.79,-17.35,0,*44
1498838720.42,5247,17.75,73588.0,6.63,-16.93,-17.45,0,*40
1498838721.62,5248,17.75,73586.8,6.63,-16.55,-16.97,0,*4B
1498838722.84,5249,17.75,73590.5,6.61,-16.37,-16.89,0,*43
1498838724.07,5250,17.75,73590.5,6.59,-16.09,-16.55,0,*4C
1498838725.29,5251,17.75,73586.8,6.61,-15.63,-15.99,0,*4A
1498838726.57,5252,17.75,73586.8,6.61,-15.35,-15.81,0,*43
1498838727.76,5253,17.75,73588.5,6.63,-15.15,-15.63,0,*4E
1498838728.96,5254,17.75,73586.3,6.63,-15.15,-15.63,0,*49
1498838730.18,5255,17.75,73588.8,6.63,-15.07,-15.57,0,*4C
1498838731.39,5256,17.75,73592.5,6.63,-15.21,-15.67,0,*48
1498838732.64,5257,17.75,73596.3,6.65,-15.29,-15.89,0,*47
1498838733.88,5258,17.75,73596.0,6.65,-15.43,-15.95,0,*49
1498838735.13,5259,17.75,73598.0,6.65,-15.67,-16.09,0,*48
1498838736.37,5260,17.75,73584.8,6.65,-15.67,-16.23,0,*4A
1498838737.59,5261,17.75,73602.3,6.65,-15.75,-16.37,0,*4D
1498838738.84,5262,17.75,73596.0,6.65,-15.49,-16.09,0,*4C
1498838740.06,5263,17.75,73592.8,6.65,-15.49,-15.95,0,*4B
1498838741.3,5264,17.75,73584.3,6.65,-15.81,-16.45,0,*46
1498838742.5,5265,17.75,73586.0,6.67,-16.03,-16.59,0,*41
1498838743.73,5266,17.75,73566.8,6.67,-16.65,-17.35,0,*49
1498838744.95,5267,17.75,73574.3,6.65,-16.97,-17.73,0,*45
1498838746.2,5268,17.75,73564.3,6.63,-17.25,-18.01,0,*4E
1498838747.42,5269,17.75,73558.5,6.63,-16.79,-17.55,0,*49
1498838748.66,5270,17.75,73582.5,6.65,-16.03,-16.69,0,*44
1498838749.91,5271,17.75,73552.5,6.63,-16.65,-17.59,0,*41
1498838751.14,5272,17.75,73538.5,6.63,-17.35,-18.31,0,*47
1498838752.37,5273,17.75,73554.5,6.61,-17.49,-18.45,0,*4C
1498838753.62,5274,17.75,73560.3,6.59,-17.45,-18.35,0,*4B
1498838754.84,5275,17.75,73578.8,6.59,-16.51,-17.31,0,*45
1498838756.12,5276,17.75,73574.3,6.57,-16.65,-17.55,0,*4D
1498838757.36,5277,17.75,73566.5,6.57,-16.89,-17.79,0,*40
1498838758.61,5278,17.75,73568.5,6.57,-16.45,-17.45,0,*40
1498838759.86,5279,17.75,73570.3,6.57,-16.31,-17.35,0,*45
1498838761.09,5280,17.75,73580.8,6.57,-16.45,-17.35,0,*40
1498838762.32,5281,17.75,73582.8,6.57,-16.79,-17.69,0,*47
1498838763.57,5282,17.75,73586.5,6.57,-16.55,-17.45,0,*44
1498838764.79,5283,17.75,73580.8,6.57,-16.89,-17.69,0,*4A
1498838766.03,5284,17.75,73586.0,6.53,-17.25,-18.17,0,*48
1498838767.28,5285,17.75,73568.8,6.53,-18.41,-19.23,0,*42
1498838768.49,5286,17.75,73562.8,6.53,-17.49,-18.41,0,*43
1498838769.77,5287,17.75,73570.3,6.53,-17.41,-18.31,0,*4D
1498838771.04,5288,17.75,73576.3,6.53,-17.11,-17.97,0,*44
1498838772.26,5289,17.75,73568.8,6.51,-17.49,-18.17,0,*4D
1498838773.48,5290,17.75,73570.3,6.49,-17.11,-17.87,0,*47
1498838774.76,5291,17.75,73566.0,6.51,-17.21,-17.97,0,*4D
1498838776.01,5292,17.75,73568.3,6.51,-17.21,-17.73,0,*44
1498838777.28,5293,17.75,73568.8,6.51,-16.51,-17.25,0,*40
1498838778.54,5294,17.75,73566.3,6.53,-16.51,-17.25,0,*45
1498838779.79,5295,17.75,73566.8,6.51,-17.07,-17.73,0,*47
1498838781.02,5296,17.75,73564.0,6.53,-17.35,-18.11,0,*4C
1498838782.3,5297,17.75,73566.0,6.51,-17.21,-17.97,0,*4B
1498838783.57,5298,17.75,73564.3,6.51,-17.21,-17.97,0,*44
1498838784.83,5299,17.75,73566.0,6.51,-17.21,-17.87,0,*44
1498838786.08,5300,17.75,73574.0,6.51,-17.11,-17.83,0,*42
1498838787.3,5301,17.75,73570.5,6.51,-16.83,-17.73,0,*46
1498838788.58,5302,17.75,73574.5,6.51,-16.65,-17.41,0,*4C
1498838789.8,5303,17.75,73580.0,6.49,-16.55,-17.41,0,*47
1498838791.05,5304,17.75,73580.5,6.51,-16.23,-16.97,0,*42
1498838792.29,5305,17.75,73584.5,6.53,-16.09,-16.93,0,*4D
1498838793.54,5306,17.75,73586.8,6.53,-15.81,-16.59,0,*4B
1498838794.79,5307,17.75,73590.0,6.57,-15.89,-16.59,0,*46
1498838796.04,5308,17.75,73588.3,6.57,-15.53,-16.31,0,*40
1498838797.32,5309,17.75,73592.0,6.57,-15.39,-16.17,0,*49
1498838798.59,5310,17.75,73590.3,6.57,-15.43,-16.31,0,*48
1498838799.84,5311,17.75,73588.8,6.59,-15.35,-16.13,0,*46
1498838801.03,5312,17.75,73594.8,6.63,-15.49,-16.41,0,*40
1498838802.27,5313,17.75,73596.0,6.63,-15.57,-16.51,0,*4F
1498838803.5,5314,17.75,73596.3,6.63,-15.75,-16.69,0,*43
1498838804.74,5315,17.75,73598.8,6.65,-15.89,-16.93,0,*42
1498838805.96,5316,17.75,73598.3,6.65,-16.03,-16.97,0,*44
1498838807.2,5317,17.75,73588.5,6.63,-16.31,-17.41,0,*48
1498838808.45,5318,17.75,73586.5,6.65,-16.23,-17.35,0,*41
1498838809.7,5319,17.75,73584.5,6.63,-16.09,-17.11,0,*48
1498838810.92,5320,17.75,73580.8,6.63,-17.07,-18.17,0,*44
1498838812.12,5321,17.75,73538.5,6.67,-18.21,-19.37,0,*49
1498838813.32,5322,17.75,73546.3,6.63,-18.41,-19.51,0,*48
1498838814.59,5323,17.75,73544.5,6.61,-17.25,-18.35,0,*45
1498838815.83,5324,17.75,73538.3,6.61,-18.07,-19.23,0,*4B
1498838817.06,5325,17.75,73544.8,6.59,-17.17,-18.49,0,*42
1498838818.31,5326,17.75,73550.0,6.59,-17.11,-18.35,0,*4C
1498838819.56,5327,17.75,73552.0,6.59,-17.41,-18.55,0,*4E
1498838820.82,5328,17.75,73566.8,6.59,-17.03,-18.31,0,*45
1498838822.07,5329,17.75,73566.3,6.59,-16.69,-17.79,0,*4A
1498838823.34,5330,17.75,73562.5,6.61,-17.17,-18.35,0,*46
1498838824.55,5331,17.75,73560.5,6.59,-16.75,-17.87,0,*4F
1498838825.78,5332,17.75,73560.5,6.59,-16.41,-17.59,0,*48
1498838827.03,5333,17.75,73570.8,6.59,-16.51,-17.59,0,*48
1498838828.26,5334,17.75,73572.5,6.59,-16.41,-17.59,0,*4E
1498838829.51,5335,17.75,73580.8,6.61,-16.55,-17.63,0,*48
1498838830.76,5336,17.75,73598.3,6.61,-16.27,-17.49,0,*46
1498838831.98,5337,17.75,73604.3,6.61,-16.55,-17.73,0,*4B
1498838833.23,5338,17.75,73592.5,6.61,-16.55,-17.79,0,*4E
1498838834.51,5339,17.75,73586.3,6.61,-17.11,-18.31,0,*4D
1498838835.73,5340,17.75,73592.8,6.61,-16.59,-17.73,0,*47
1498838836.98,5341,17.75,73586.0,6.61,-16.59,-17.79,0,*4C
1498838838.16,5342,17.75,73586.8,6.63,-17.83,-19.07,0,*4C
1498838839.38,5343,17.75,73586.8,6.63,-17.69,-18.89,0,*4E
1498838840.63,5344,17.75,73584.3,6.59,-18.31,-19.27,0,*47
1498838841.85,5345,17.75,73604.8,6.59,-16.75,-17.93,0,*49
1498838843.09,5346,17.75,73594.5,6.59,-16.41,-17.59,0,*4B
1498838844.36,5347,17.75,73592.8,6.61,-16.69,-17.79,0,*49
1498838845.6,5348,17.75,73592.0,6.61,-16.83,-17.93,0,*46
1498838846.79,5349,17.75,73588.3,6.63,-16.97,-18.17,0,*43
1498838848.0,5350,17.75,73598.8,6.63,-16.79,-17.87,0,*4D
1498838849.22,5351,17.75,73602.5,6.63,-16.93,-17.97,0,*49
1498838850.45,5352,17.75,73592.0,6.63,-17.55,-18.59,0,*4C
1498838851.69,5353,17.75,73596.0,6.63,-17.41,-18.59,0,*48
1498838852.94,5354,17.75,73600.5,6.63,-17.21,-18.31,0,*47
1498838854.14,5355,17.75,73614.5,6.63,-17.35,-18.41,0,*44
1498838855.41,5356,17.75,73618.3,6.61,-17.11,-18.35,0,*40
1498838856.6,5357,17.75,73618.3,6.63,-17.69,-18.79,0,*44
1498838857.82,5358,17.75,73596.8,6.63,-18.49,-19.81,0,*40
1498838859.05,5359,17.75,73590.0,6.59,-18.07,-19.27,0,*4E
1498838860.27,5360,17.75,73582.5,6.59,-18.17,-19.27,0,*45
1498838861.49,5361,17.75,73578.8,6.59,-17.93,-18.99,0,*43
1498838862.71,5362,17.75,73574.5,6.59,-17.17,-18.21,0,*4F
1498838863.91,5363,17.75,73572.8,6.59,-16.83,-17.73,0,*4A
1498838865.16,5364,17.75,73580.0,6.61,-16.51,-17.49,0,*40
1498838866.43,5365,17.75,73584.0,6.61,-16.51,-17.59,0,*40
1498838867.7,5366,17.75,73594.5,6.61,-16.69,-17.63,0,*41
1498838868.95,5367,17.75,73596.3,6.61,-16.69,-17.73,0,*41
1498838870.14,5368,17.75,73596.5,6.59,-17.31,-18.45,0,*43
1498838871.37,5369,17.75,73598.5,6.63,-17.45,-18.45,0,*48
1498838872.61,5370,17.75,73584.0,6.61,-17.63,-18.69,0,*48
1498838873.86,5371,17.75,73584.8,6.63,-17.25,-18.31,0,*44
1498838875.11,5372,17.75,73594.5,6.61,-17.11,-18.07,0,*47
1498838876.32,5373,17.75,73604.3,6.61,-17.87,-18.83,0,*45
1498838877.6,5374,17.75,73608.8,6.61,-17.11,-18.31,0,*44
1498838878.85,5375,17.75,73614.3,6.61,-17.45,-18.45,0,*47
1498838880.09,5376,17.75,73610.3,6.61,-17.79,-18.65,0,*49
1498838881.33,5377,17.75,73604.3,6.63,-17.11,-18.01,0,*46
1498838882.56,5378,17.75,73596.0,6.61,-16.83,-17.73,0,*4B
1498838883.8,5379,17.75,73608.0,6.61,-16.89,-17.79,0,*4A
1498838885.02,5380,17.75,73608.0,6.61,-16.75,-17.73,0,*45
1498838886.28,5381,17.75,73600.8,6.61,-16.55,-17.59,0,*4E
1498838887.5,5382,17.75,73604.5,6.61,-16.97,-18.07,0,*47
1498838888.74,5383,17.75,73606.3,6.65,-17.55,-18.49,0,*47
1498838889.94,5384,17.75,73610.5,6.63,-16.79,-17.83,0,*40
1498838891.21,5385,17.75,73610.8,6.65,-16.51,-17.45,0,*47
1498838892.46,5386,17.75,73614.8,6.63,-16.69,-17.59,0,*44
1498838893.68,5387,17.75,73610.3,6.63,-16.93,-17.97,0,*42
1498838894.9,5388,17.75,73608.0,6.63,-17.41,-18.41,0,*47
1498838896.14,5389,17.75,73586.0,6.65,-18.25,-19.23,0,*48
1498838897.36,5390,17.75,73594.0,6.63,-17.97,-19.03,0,*42
1498838898.6,5391,17.75,73592.5,6.63,-17.55,-18.59,0,*43
1498838899.82,5392,17.75,73588.3,6.61,-17.49,-18.45,0,*42
1498838901.06,5393,17.75,73584.5,6.61,-17.79,-18.79,0,*4F
1498838902.27,5394,17.75,73582.0,6.59,-17.63,-18.49,0,*4B
1498838903.5,5395,17.75,73592.3,6.59,-17.31,-18.31,0,*42
1498838904.75,5396,17.75,73596.8,6.59,-17.11,-18.01,0,*40
1498838906.0,5397,17.75,73592.8,6.61,-17.17,-18.21,0,*4E
1498838907.22,5398,17.75,73598.8,6.59,-17.73,-18.55,0,*4B
1498838908.44,5399,17.75,73604.0,6.59,-17.63,-18.65,0,*48
1498838909.72,5400,17.75,73606.8,6.61,-17.45,-18.31,0,*41
1498838910.97,5401,17.75,73604.5,6.59,-17.25,-18.31,0,*4D